Glendale Luke AFB, AZ

8:50 AM MST on December 14, 2019 (GMT -0700)
Luke Air Force Base

Weather History for KLUF - August, 2019

Change the Weather History Date:

Sunday, August 4, 2019

  Actual Average Record
Temperature  
Mean Temperature 95 °F -  
Max Temperature 109 °F 107 °F 116 °F (1969)
Min Temperature 81 °F 75 °F 64 °F (1953)
Cooling Degree Days 30    
Growing Degree Days 45 (Base 50)    
Moisture  
Dew Point 62 °F    
Average Humidity 36    
Maximum Humidity 73    
Minimum Humidity 16    
Precipitation  
Precipitation 0.00 in - - ()
Sea Level Pressure  
Sea Level Pressure 29.78 in    
Wind  
Wind Speed 5 mph (NE)    
Max Wind Speed 9 mph    
Max Gust Speed -    
Visibility 10 miles    
Events      
Averages and records for this station are not official NWS values.
T = Trace of Precipitation, MM = Missing Value Source: NWS Daily Summary

Daily Weather History Graph

Daily Weather History Graph

Search for Another Location

Airport or City:

Astronomy

Aug. 04, 2019 Rise Set
Actual Time 5:43 AM MST 7:26 PM MST
Civil Twilight 5:16 AM MST 7:53 PM MST
Nautical Twilight 4:44 AM MST 8:26 PM MST
Astronomical Twilight 4:09 AM MST 9:00 PM MST
Moon 9:43 AM MST (8/4) 10:21 PM MST (8/4)
Length of Visible Light 14h 36m
Length of Day
13h 42m
Waxing Crescent, 19% of the Moon is Illuminated
Aug 4
Waxing Crescent
Aug 7
First Quarter
Aug 15
Full
Aug 23
Last Quarter
Aug 30
New

Hourly Weather History & Observations

Time (MST) Temp. Heat Index Dew Point Humidity Pressure Visibility Wind Dir Wind Speed Gust Speed Precip Events Conditions
12:04 AM 82.4 °F 87.2 °F 71.6 °F 70% 29.84 in 10.0 mi NW 9.2 mph - N/A   Scattered Clouds
12:58 AM 87.1 °F 88.9 °F 65.5 °F 48% 29.81 in 10.0 mi SE 6.9 mph - 0.00 in   Partly Cloudy
1:58 AM 86.7 °F 89.6 °F 66.9 °F 52% 29.79 in 10.0 mi SW 4.6 mph - N/A   Clear
2:58 AM 86.4 °F 89.0 °F 67.1 °F 52% 29.80 in 10.0 mi Calm Calm - N/A   Clear
3:58 AM 84.9 °F 89.4 °F 70.0 °F 61% 29.81 in 10.0 mi Calm Calm - N/A   Clear
4:58 AM 83.7 °F 88.0 °F 70.5 °F 64% 29.81 in 10.0 mi Calm Calm - N/A   Clear
5:58 AM 81.3 °F 85.8 °F 71.8 °F 73% 29.83 in 10.0 mi NNE 3.5 mph - N/A   Clear
6:58 AM 84.2 °F 88.7 °F 70.2 °F 63% 29.84 in 10.0 mi NNE 4.6 mph - N/A   Clear
7:58 AM 89.6 °F 93.0 °F 67.8 °F 48% 29.85 in 10.0 mi NNE 4.6 mph - N/A   Clear
8:58 AM 92.8 °F 94.7 °F 64.2 °F 39% 29.86 in 10.0 mi ENE 3.5 mph - N/A   Clear
9:58 AM 96.6 °F 97.7 °F 61.9 °F 32% 29.86 in 10.0 mi Calm Calm - N/A   Clear
10:58 AM 100.6 °F 101.6 °F 60.4 °F 27% 29.85 in 10.0 mi NE 4.6 mph - N/A   Clear
11:58 AM 103.1 °F 103.3 °F 59.2 °F 23% 29.84 in 10.0 mi NE 5.8 mph - N/A   Partly Cloudy
12:58 PM 105.4 °F 105.6 °F 58.6 °F 21% 29.81 in 10.0 mi NNE 3.5 mph - N/A   Partly Cloudy
1:58 PM 107.1 °F 107.4 °F 57.4 °F 20% 29.78 in 10.0 mi East 6.9 mph - N/A   Clear
2:58 PM 109.0 °F 108.9 °F 56.1 °F 18% 29.75 in 10.0 mi NNE 4.6 mph - N/A   Partly Cloudy
3:58 PM 109.2 °F 108.4 °F 54.7 °F 17% 29.73 in 10.0 mi NW 6.9 mph - N/A   Clear
4:58 PM 108.1 °F 106.9 °F 53.8 °F 17% 29.70 in 10.0 mi West 4.6 mph - N/A   Clear
5:58 PM 108.9 °F - 52.7 °F 16% 29.70 in 10.0 mi SSW 3.5 mph - N/A   Clear
6:58 PM 108.0 °F 106.6 °F 53.6 °F 17% 29.70 in 10.0 mi South 9.2 mph - N/A   Clear
7:58 PM 106.0 °F 104.5 °F 53.6 °F 18% 29.70 in 10.0 mi South 6.9 mph - N/A   Clear
8:58 PM 104.2 °F 103.1 °F 55.0 °F 20% 29.72 in 10.0 mi South 3.5 mph - N/A   Clear
9:58 PM 101.1 °F 100.3 °F 56.5 °F 23% 29.73 in 10.0 mi Calm Calm - N/A   Clear
10:58 PM 96.6 °F 99.2 °F 65.1 °F 35% 29.74 in 10.0 mi Calm Calm - N/A   Clear
11:58 PM 96.8 °F 96.7 °F 59.2 °F 29% 29.75 in 10.0 mi North 5.8 mph - N/A   Partly Cloudy